Погода в Вавоже

Россия / Удмуртская Республика     56°46′27″N   51°55′35″E
темп.,
°C
ветер,
м/с
пор.,
м/с
влажн.,
%
обл.,
%
осадки,
мм/ч
давл.,
гПа
погр.,
м
9 декабря, чт
чт901:00−1ю51193100 0.0 1027395
04:00−2ю41095100 0.0 1027373
07:00−4ююв41094100 0.0 1027279
10:00−4ююв41093100 0.0 1027323
13:00−3ю41191100 0.0 1026439
16:00−4ююв3891100 0.0 1025223
19:00−4ююв3892100 0.0 1024316
22:00−5ю3994100 0.0 1024253
10 декабря, пт
пт1001:00−5ююз3695100 0.0 1024215
04:00−5зюз2597100 0.1 1025135
07:00−9зсз2210096 0.1 102631
10:00−11сз389543 0.1 1029193
13:00−11ссз49895 0.0 1031308
16:00−14ссз24957 0.0 103364
19:00−16с38958 0.0 1035161
22:00−17с25957 0.0 103781
11 декабря, сб
сб1101:00−18с24977 0.0 103876
04:00−19с22988 0.0 103932
07:00−18с23977 0.0 104039
10:00−18ссв13965 0.0 104248
13:00−11св25895 0.0 1041158
16:00−14с229712 0.0 10429
19:00−16ссв229714 0.0 104410
22:00−17ссв11978 0.0 10449
12 декабря, вс
вс1201:00−17ссв11965 0.0 104410
04:00−17всв119462 0.0 10459
07:00−18ссв00935 0.0 10459
10:00−17юз00935 0.0 104610
13:00−10юз118224 0.0 104535
16:00−14ююв119149 0.0 10449
19:00−15ююв11945 0.0 10459
22:00−16ю22945 0.0 104412
13 декабря, пн
пн1301:00−16ююз22925 0.0 104317
04:00−16ююз229237 0.0 104313
07:00−16юз229495 0.0 104210
10:00−16ююз229426 0.0 104232
13:00−9юз278666 0.0 1040168
16:00−14ююз229397 0.0 104013
19:00−15ююз2294100 0.0 103921
22:00−12юз2689100 0.0 1038104